Location: Caltech
(34.1382°N, 118.1253°W)
Time: 14:15:32
(UTC-07:00)

Iridium 62 - Visible Passes

Search period start: 22 May 2017 00:00
Search period end: 01 June 2017 00:00
Orbit: 776 x 779 km, 86.4° (Epoch: 21 May)

Date Brightness Start Highest point End Pass type
(mag) Time Alt. Az. Time Alt. Az. Time Alt. Az.
22 May 7.5 01:06:28 29° NNW 01:06:28 29° NNW 01:09:11 10° N visible
23 May 7.3 00:32:56 34° N 00:32:56 34° N 00:35:49 10° N visible
23 May 7.5 23:59:24 27° NE 23:59:24 27° NE 00:02:01 10° NNE visible
24 May 8.1 01:39:51 15° NW 01:39:51 15° NW 01:41:31 10° NW visible
24 May 7.9 23:25:51 17° NE 23:25:51 17° NE 23:27:44 10° NE visible
25 May 7.6 01:06:19 25° NW 01:06:19 25° NW 01:08:59 10° NNW visible
26 May 7.2 00:32:45 36° NNW 00:32:45 36° NNW 00:35:51 10° N visible
26 May 7.1 23:59:11 36° NNE 23:59:11 36° NNE 00:02:18 10° N visible
27 May 8.4 01:39:39 11° WNW 01:39:39 11° WNW 01:40:09 10° NW visible
27 May 7.4 23:25:37 25° NE 23:25:37 25° NE 23:28:21 10° NNE visible
28 May 7.9 01:06:05 20° NW 01:06:05 20° NW 01:08:35 10° NNW visible
28 May 7.9 22:52:03 15° ENE 22:52:03 15° ENE 22:53:43 10° NE visible
29 May 7.3 00:32:30 33° NW 00:32:30 33° NW 00:35:45 10° NNW visible
29 May 6.8 23:58:55 44° N 23:58:55 44° N 00:02:26 10° N visible
30 May 6.9 23:25:19 36° NE 23:25:19 36° NE 23:28:44 10° NNE visible
31 May 8.1 01:05:47 15° WNW 01:05:47 15° WNW 01:07:47 10° NW visible
31 May 7.4 22:51:43 22° ENE 22:51:43 22° ENE 22:54:35 10° NNE visible
